Location: Newport
(44.6370°N, 124.0520°W)
Time: 15:24:04
(UTC-07:00)

Envisat - Pass Details

Date: 12 October 2017
Orbit: 764 x 766 km, 98.2° (Epoch: 23 October)

Event Time Altitude Azimuth Distance (km) Brightness Sun altitude
Exits shadow 21:54:23 30° 273° (W) 1,344 4.6 -35.2°
Drops below altitude 10° 21:58:31 10° 326° (NNW) 2,311 6.1 -35.8°
Sets 22:01:06 0° 337° (NNW) 3,242 6.9 -36.3°
